Date String (YYYY-MM-DD hh:mm:ss) UTC,Instrument flags,absolute air pressure of the measurement (hPa),sample flow rate (lpm),inlet stack bypass flow (lpm),air temperature of the measurement (°C),ambient temperature measured by the external sensor (°C),aerosol sample conditioner tube jacket temperature (°C),OPC LED temperature (°C),internal box temperature (°C),relative humidity of the measurement (%),span deviation,mass concentration of particles derived from Lorenz-Mie calculation of OPC scattering (μg/m³),mass concentration of particles derived from Lorenz-Mie calculation of OPC scattering (μg/m³),mass concentration of particles derived from Lorenz-Mie calculation of OPC scattering (μg/m³)
DateTimeUTC,F1_M11,P_M11,Q1_M11,Q2_M11,T1_M11,T2_M11,T3_M11,T4_M11,T5_M11,U1_M11,ZSPAN_M11,X0_M11,X2_M11,X1_M11
2024-04-07 11:00:00,SystemResetWarning,0814.9,5.00,000.00,018.7,017.7,000.0,027.3,020.2,010.1,0000.0,0007.79,0001.58,0000.61
2024-04-07 11:01:00,SystemResetWarning,0815.1,5.00,000.00,018.6,017.5,000.0,027.3,020.1,010.1,0000.0,0008.41,0001.57,0000.61
2024-04-07 11:02:00,SystemResetWarning,0815.1,5.00,000.00,018.5,017.4,000.0,027.3,020.0,010.1,0000.0,0008.37,0001.57,0000.62
2024-04-07 11:03:00,SystemResetWarning,0815.2,5.01,000.00,018.5,017.2,000.0,027.3,020.0,010.3,0000.0,0008.58,0001.56,0000.62
2024-04-07 11:04:00,SystemResetWarning,0815.0,5.00,000.00,018.5,017.1,000.0,027.2,020.0,010.4,0000.0,0008.32,0001.52,0000.63
2024-04-07 11:05:00,SystemResetWarning,0814.8,5.00,000.00,018.4,017.0,000.0,027.2,020.0,010.4,0000.0,0007.96,0001.47,0000.62
2024-04-07 11:06:00,SystemResetWarning,0815.0,5.00,000.00,018.4,017.0,000.0,027.2,020.0,010.4,0000.0,0008.01,0001.52,0000.63
2024-04-07 11:07:00,SystemResetWarning,0815.0,5.01,000.00,018.5,017.7,000.0,027.3,020.4,010.4,0000.0,0008.68,0001.57,0000.63
2024-04-07 11:08:00,SystemResetWarning,0815.2,4.99,000.00,018.7,018.7,000.0,027.4,020.9,010.3,0000.0,0009.25,0001.56,0000.63
2024-04-07 11:09:00,SystemResetWarning,0815.1,4.99,000.00,018.9,018.8,000.0,027.3,021.0,010.3,0000.0,0009.08,0001.46,0000.63
2024-04-07 11:10:00,SystemResetWarning,0815.2,4.99,000.00,018.8,018.5,000.0,027.3,020.7,010.3,0000.0,0008.84,0001.42,0000.63
2024-04-07 11:11:00,SystemResetWarning,0815.1,5.00,000.00,018.8,018.1,000.0,027.3,020.4,010.3,0000.0,0008.26,0001.37,0000.62
2024-04-07 11:12:00,SystemResetWarning,0815.1,5.00,000.00,018.7,017.8,000.0,027.2,020.2,010.4,0000.0,0007.96,0001.38,0000.62
2024-04-07 11:13:00,SystemResetWarning,0815.1,5.00,000.00,018.6,017.5,000.0,027.2,020.1,010.4,0000.0,0007.96,0001.35,0000.61
2024-04-07 11:14:00,SystemResetWarning,0815.1,5.00,000.00,018.5,017.3,000.0,027.2,020.0,010.4,0000.0,0008.06,0001.36,0000.60
2024-04-07 11:15:00,SystemResetWarning,0814.8,5.00,000.00,018.5,017.2,000.0,027.2,020.0,010.4,0000.0,0008.03,0001.34,0000.59
2024-04-07 11:16:00,SystemResetWarning,0814.8,5.01,000.00,018.4,017.1,000.0,027.2,020.0,010.4,0000.0,0008.13,0001.37,0000.60
2024-04-07 11:17:00,SystemResetWarning,0814.9,5.01,000.00,018.4,017.1,000.0,027.2,020.0,010.5,0000.0,0008.18,0001.37,0000.60
2024-04-07 11:18:00,SystemResetWarning,0815.1,5.00,000.00,018.4,017.1,000.0,027.2,020.0,010.5,0000.0,0008.45,0001.40,0000.62
2024-04-07 11:19:00,SystemResetWarning,0815.1,5.00,000.00,018.4,017.0,000.0,027.2,020.0,010.5,0000.0,0008.31,0001.48,0000.63
2024-04-07 11:20:00,SystemResetWarning,0815.1,4.99,000.00,018.3,017.0,000.0,027.2,020.0,010.5,0000.0,0008.23,0001.48,0000.63
2024-04-07 11:21:00,SystemResetWarning,0815.1,5.01,000.00,018.4,017.2,000.0,027.2,020.1,010.5,0000.0,0008.60,0001.49,0000.63
2024-04-07 11:22:00,SystemResetWarning,0815.2,5.01,000.00,018.5,018.3,000.0,027.3,020.7,010.5,0000.0,0009.46,0001.49,0000.62
2024-04-07 11:23:00,SystemResetWarning,0815.3,4.99,000.00,018.8,019.3,000.0,027.4,021.3,010.3,0000.0,0011.12,0001.85,0000.64
2024-04-07 11:24:00,SystemResetWarning,0815.4,5.00,000.00,019.0,019.4,000.0,027.3,021.2,010.2,0000.0,0012.21,0002.15,0000.67
2024-04-07 11:25:00,SystemResetWarning,0815.4,5.00,000.00,019.0,019.0,000.0,027.3,020.9,010.1,0000.0,0012.16,0002.15,0000.67
2024-04-07 11:26:00,SystemResetWarning,0815.2,5.00,000.00,018.9,018.7,000.0,027.3,020.7,010.1,0000.0,0012.05,0002.21,0000.69
2024-04-07 11:27:00,SystemResetWarning,0815.6,5.00,000.00,018.9,018.4,000.0,027.3,020.5,010.2,0000.0,0012.04,0002.22,0000.68
2024-04-07 11:28:00,SystemResetWarning,0815.6,5.01,000.00,018.8,018.1,000.0,027.3,020.4,010.3,0000.0,0012.05,0002.21,0000.67
2024-04-07 11:29:00,SystemResetWarning,0815.4,4.99,000.00,018.8,017.9,000.0,027.3,020.3,010.2,0000.0,0012.32,0002.14,0000.65
2024-04-07 11:30:00,SystemResetWarning,0815.6,5.00,000.00,018.7,017.7,000.0,027.3,020.1,010.3,0000.0,0012.67,0002.07,0000.65
2024-04-07 11:31:00,SystemResetWarning,0815.4,4.99,000.00,018.6,017.6,000.0,027.2,020.0,010.3,0000.0,0012.53,0002.10,0000.66
2024-04-07 11:32:00,SystemResetWarning,0815.6,5.00,000.00,018.5,017.4,000.0,027.2,020.0,010.4,0000.0,0012.25,0002.11,0000.66
2024-04-07 11:33:00,SystemResetWarning,0815.7,5.00,000.00,018.5,017.3,000.0,027.2,020.0,010.4,0000.0,0012.33,0002.17,0000.66
2024-04-07 11:34:00,SystemResetWarning,0815.6,5.00,000.00,018.4,017.2,000.0,027.2,020.0,010.4,0000.0,0010.89,0001.94,0000.65
2024-04-07 11:35:00,SystemResetWarning,0815.9,5.00,000.00,018.4,017.2,000.0,027.2,020.0,010.3,0000.0,0010.06,0001.66,0000.63
2024-04-07 11:36:00,SystemResetWarning,0815.9,4.99,000.00,018.4,017.1,000.0,027.2,020.0,010.3,0000.0,0010.22,0001.73,0000.63
2024-04-07 11:37:00,SystemResetWarning,0815.8,5.01,000.00,018.4,017.0,000.0,027.2,020.0,010.4,0000.0,0009.82,0001.78,0000.63
2024-04-07 11:38:00,SystemResetWarning,0815.7,5.01,000.00,018.4,017.0,000.0,027.2,020.0,010.4,0000.0,0009.82,0001.79,0000.63
2024-04-07 11:39:00,SystemResetWarning,0815.7,5.00,000.00,018.3,017.0,000.0,027.2,020.0,010.4,0000.0,0009.77,0001.79,0000.63
2024-04-07 11:40:00,SystemResetWarning,0815.7,5.00,000.00,018.4,017.6,000.0,027.3,020.3,010.5,0000.0,0009.09,0001.82,0000.63
2024-04-07 11:41:00,SystemResetWarning,0816.1,5.00,000.00,018.6,018.6,000.0,027.3,020.8,010.3,0000.0,0008.29,0001.81,0000.63
2024-04-07 11:42:00,SystemResetWarning,0816.3,5.00,000.00,018.9,019.3,000.0,027.4,021.3,010.1,0000.0,0008.21,0001.76,0000.62
2024-04-07 11:43:00,SystemResetWarning,0816.4,4.99,000.00,019.0,019.2,000.0,027.3,021.1,010.0,0000.0,0008.06,0001.70,0000.60
2024-04-07 11:44:00,SystemResetWarning,0816.4,5.00,000.00,019.0,018.9,000.0,027.3,020.9,009.9,0000.0,0006.31,0001.56,0000.60
2024-04-07 11:45:00,SystemResetWarning,0816.3,5.01,000.00,018.9,018.5,000.0,027.3,020.6,009.9,0000.0,0005.95,0001.45,0000.58
2024-04-07 11:46:00,SystemResetWarning,0816.6,5.00,000.00,018.8,018.2,000.0,027.3,020.4,010.0,0000.0,0004.36,0001.34,0000.58
2024-04-07 11:47:00,SystemResetWarning,0816.5,5.00,000.00,018.7,017.9,000.0,027.3,020.3,010.0,0000.0,0004.00,0001.29,0000.57
2024-04-07 11:48:00,SystemResetWarning,0816.5,5.00,000.00,018.7,017.7,000.0,027.3,020.1,010.0,0000.0,0003.83,0001.19,0000.56
2024-04-07 11:49:00,SystemResetWarning,0816.6,5.01,000.00,018.6,017.5,000.0,027.2,020.0,010.1,0000.0,0003.73,0001.10,0000.55
2024-04-07 11:50:00,SystemResetWarning,0816.6,5.01,000.00,018.5,017.4,000.0,027.2,020.0,010.1,0000.0,0003.72,0001.04,0000.54
2024-04-07 11:51:00,SystemResetWarning,0816.7,4.99,000.00,018.5,017.3,000.0,027.2,020.0,010.1,0000.0,0003.53,0000.97,0000.53
2024-04-07 11:52:00,SystemResetWarning,0816.6,4.99,000.00,018.4,017.2,000.0,027.2,020.0,010.1,0000.0,0003.04,0000.90,0000.52
2024-04-07 11:53:00,SystemResetWarning,0816.6,5.02,000.00,018.4,017.2,000.0,027.2,020.0,010.0,0000.0,0002.60,0000.97,0000.52
2024-04-07 11:54:00,SystemResetWarning,0816.6,4.99,000.00,018.4,017.2,000.0,027.2,020.0,010.0,0000.0,0002.60,0000.97,0000.52
2024-04-07 11:55:00,SystemResetWarning,0816.7,4.99,000.00,018.4,017.2,000.0,027.2,020.0,010.0,0000.0,0003.11,0001.03,0000.52
2024-04-07 11:56:00,SystemResetWarning,0816.7,5.01,000.00,018.4,017.1,000.0,027.2,020.0,010.0,0000.0,0004.03,0001.06,0000.52
2024-04-07 11:57:00,SystemResetWarning,0816.7,5.01,000.00,018.3,017.1,000.0,027.2,020.0,010.1,0000.0,0004.10,0001.12,0000.52
2024-04-07 11:58:00,SystemResetWarning,0816.8,4.99,000.00,018.3,017.1,000.0,027.2,020.0,010.0,0000.0,0004.19,0001.12,0000.51
2024-04-07 11:59:00,SystemResetWarning,0816.7,4.99,000.00,018.3,017.2,000.0,027.2,020.1,010.1,0000.0,0004.39,0001.14,0000.51
